TimeMDT,TemperatureF,Dew PointF,Humidity,Sea Level PressureIn,VisibilityMPH,Wind Direction,Wind SpeedMPH,Gust SpeedMPH,PrecipitationIn,Events,Conditions,WindDirDegrees,DateUTC
12:52 AM,46.0,43.0,89,29.86,10.0,SW,5.8,-,N/A,,Mostly Cloudy,220,2013-04-29 06:52:00
1:52 AM,44.1,41.0,89,29.83,10.0,SSE,8.1,-,N/A,,Mostly Cloudy,150,2013-04-29 07:52:00
2:52 AM,42.1,41.0,96,29.82,10.0,SE,6.9,-,N/A,,Clear,140,2013-04-29 08:52:00
3:52 AM,44.1,41.0,89,29.81,10.0,South,12.7,-,N/A,,Clear,180,2013-04-29 09:52:00
4:52 AM,42.1,39.9,92,29.79,10.0,South,11.5,-,N/A,,Clear,180,2013-04-29 10:52:00
5:52 AM,45.0,39.9,82,29.76,10.0,South,13.8,-,N/A,,Clear,170,2013-04-29 11:52:00
6:52 AM,46.9,39.9,77,29.75,10.0,South,12.7,-,N/A,,Clear,180,2013-04-29 12:52:00
7:52 AM,51.1,43.0,74,29.73,10.0,South,15.0,-,N/A,,Clear,180,2013-04-29 13:52:00
8:52 AM,55.9,42.1,60,29.69,10.0,South,18.4,24.2,N/A,,Clear,190,2013-04-29 14:52:00
9:52 AM,60.1,39.9,47,29.63,10.0,South,21.9,27.6,N/A,,Clear,180,2013-04-29 15:52:00
10:52 AM,61.0,41.0,48,29.60,10.0,South,19.6,-,N/A,,Clear,170,2013-04-29 16:52:00
11:52 AM,64.9,42.1,43,29.56,10.0,SSE,12.7,23.0,N/A,,Clear,150,2013-04-29 17:52:00
12:52 PM,68.0,39.9,36,29.52,10.0,South,17.3,-,N/A,,Clear,190,2013-04-29 18:52:00
1:52 PM,72.0,37.0,28,29.47,10.0,SSW,15.0,25.3,N/A,,Clear,200,2013-04-29 19:52:00
2:52 PM,72.0,30.0,21,29.44,10.0,West,11.5,-,N/A,,Clear,270,2013-04-29 20:52:00
3:52 PM,75.0,30.9,20,29.41,10.0,WSW,11.5,-,N/A,,Clear,250,2013-04-29 21:52:00
4:52 PM,73.0,30.0,20,29.37,10.0,South,10.4,-,N/A,,Clear,190,2013-04-29 22:52:00
5:52 PM,73.0,35.1,25,29.34,10.0,SSE,9.2,-,N/A,,Clear,160,2013-04-29 23:52:00
6:52 PM,69.1,35.1,29,29.32,10.0,South,6.9,-,N/A,,Mostly Cloudy,190,2013-04-30 00:52:00
7:52 PM,66.0,33.1,29,29.32,10.0,WNW,12.7,17.3,N/A,,Scattered Clouds,300,2013-04-30 01:52:00
8:52 PM,51.1,39.9,66,29.43,10.0,NNW,49.5,62.1,N/A,,Clear,340,2013-04-30 02:52:00
9:52 PM,48.0,39.0,71,29.51,10.0,NNW,38.0,50.6,N/A,,Scattered Clouds,340,2013-04-30 03:52:00
10:52 PM,46.9,37.0,68,29.56,10.0,NNW,39.1,47.2,N/A,,Clear,340,2013-04-30 04:52:00
11:52 PM,45.0,37.0,74,29.58,10.0,NNW,32.2,41.4,N/A,,Clear,340,2013-04-30 05:52:00